EW0758 Weather Reports


time (UTC)temp
C
wind
direction
speed
KPH
gust
KPH
rain 1hr
cm
rain 24hr
cm
rain mn
cm
humidity
%
barometer
mb
20260505095558 31 61 14.5 20.9 0.00 0.00 0.00 73 1007.9
20260505095044 31 67 3.2 16.1 0.00 0.00 0.00 73 1007.9
20260505094539 31 67 9.7 16.1 0.00 0.00 0.00 73 1007.8
20260505094025 31 64 1.6 16.1 0.00 0.00 0.00 73 1007.6
20260505093914 31 69 1.6 12.9 0.00 0.00 0.00 73 1007.4
20260505093350 31 339 3.2 12.9 0.00 0.00 0.00 73 1007.4
20260505092457 31 163 1.6 24.1 0.00 0.00 0.00 72 1007.4
20260505091934 31 317 3.2 32.2 0.00 0.00 0.00 72 1007.5
20260505091433 32 37 0.0 16.1 0.00 0.00 0.00 71 1007.1
20260505091422 32 61 4.8 20.9 0.00 0.00 0.00 71 1007.1
20260505090833 31 281 0.0 27.4 0.00 0.00 0.00 71 1007.3
20260505090254 31 36 6.4 27.4 0.00 0.00 0.00 72 1007.2
20260505085349 32 82 8.0 24.1 0.00 0.00 0.00 72 1007.1
20260505085208 32 42 9.7 24.1 0.00 0.00 0.00 71 1007.0
20260505084314 32 81 1.6 27.4 0.00 0.00 0.00 71 1007.2
20260505084204 32 71 14.5 27.4 0.00 0.00 0.00 71 1007.2
20260505083300 32 15 1.6 12.9 0.00 0.00 0.00 71 1007.2
20260505082755 32 5 0.0 12.9 0.00 0.00 0.00 72 1007.1
20260505082701 32 354 3.2 20.9 0.00 0.00 0.00 71 1007.1
20260505081734 32 10 6.4 27.4 0.00 0.00 0.00 71 1007.0
20260505081225 32 9 11.3 40.2 0.00 0.00 0.00 71 1007.0
20260505080723 33 261 24.1 37.0 0.00 0.00 0.00 70 1007.0
20260505080645 33 351 12.9 40.2 0.00 0.00 0.00 68 1007.2
20260505075639 33 301 16.1 40.2 0.00 0.00 0.00 68 1006.8
20260505075136 33 328 24.1 27.4 0.00 0.00 0.00 68 1006.8
20260505074629 33 315 12.9 32.2 0.00 0.00 0.00 68 1006.8
20260505074117 33 348 9.7 32.2 0.00 0.00 0.00 68 1006.9
20260505073801 33 336 11.3 24.1 0.00 0.00 0.00 68 1006.9
20260505072551 32 30 6.4 24.1 0.00 0.00 0.00 70 1007.1
20260505072034 32 9 4.8 20.9 0.00 0.00 0.00 72 1007.1
20260505071533 31 325 9.7 20.9 0.00 0.00 0.00 73 1007.3
20260505071414 32 335 1.6 20.9 0.00 0.00 0.00 73 1007.2
20260505070516 31 331 6.4 32.2 0.00 0.00 0.00 74 1007.3
20260505070003 31 24 0.0 32.2 0.00 0.00 0.00 75 1007.4
20260505065507 31 18 11.3 27.4 0.00 0.00 0.00 74 1007.3
20260505064947 32 323 20.9 27.4 0.00 0.00 0.00 74 1007.2
20260505064447 32 319 3.2 24.1 0.00 0.00 0.00 74 1007.5
20260505063929 31 8 14.5 24.1 0.00 0.00 0.00 74 1007.4
20260505063423 31 312 9.7 20.9 0.00 0.00 0.00 73 1007.6
20260505062917 31 0 0.0 24.1 0.00 0.00 0.00 74 1007.7
20260505062414 31 5 0.0 27.4 0.00 0.00 0.00 74 1007.7
20260505061902 31 308 19.3 27.4 0.00 0.00 0.00 74 1007.4
20260505061723 31 313 20.9 27.4 0.00 0.00 0.00 74 1007.5
20260505060830 31 13 4.8 20.9 0.00 0.00 0.00 73 1007.4
20260505060325 31 26 0.0 20.9 0.00 0.00 0.00 74 1007.7
20260505055815 31 37 0.0 32.2 0.00 0.00 0.00 73 1007.4
20260505055257 32 46 1.6 32.2 0.00 0.00 0.00 74 1007.7
20260505054759 32 7 16.1 32.2 0.00 0.00 0.00 73 1007.7
20260505054241 32 203 17.7 27.4 0.00 0.00 0.00 71 1007.7
20260505053730 33 37 1.6 27.4 0.00 0.00 0.00 71 1007.8
20260505053227 34 272 3.2 20.9 0.00 0.00 0.00 68 1007.9
20260505052706 33 5 3.2 16.1 0.00 0.00 0.00 70 1008.1
20260505052146 33 293 3.2 27.4 0.00 0.00 0.00 70 1008.0
20260505051726 33 60 1.6 27.4 0.00 0.00 0.00 71 1008.0
20260505051637 32 333 12.9 27.4 0.00 0.00 0.00 72 1007.9
20260505051056 32 38 14.5 27.4 0.00 0.00 0.00 71 1008.1
20260505050113 32 355 9.7 24.1 0.00 0.00 0.00 71 1008.4
20260505041507 32 321 3.2 24.1 0.00 0.00 0.00 71 1008.9
20260505041000 32 292 6.4 27.4 0.00 0.00 0.00 71 1008.8
20260505040441 32 309 14.5 27.4 0.00 0.00 0.00 71 1008.9
20260505035937 32 2 9.7 32.2 0.00 0.00 0.00 70 1008.9
20260505035423 33 191 12.9 32.2 0.00 0.00 0.00 69 1008.9
20260505034915 33 114 9.7 24.1 0.00 0.00 0.00 68 1008.9
20260505034406 33 215 17.7 32.2 0.00 0.00 0.00 70 1009.2
20260505033856 32 178 11.3 32.2 0.00 0.00 0.00 71 1009.1
20260505033400 31 287 9.7 32.2 0.00 0.00 0.00 71 1009.4
20260505032845 31 227 19.3 27.4 0.00 0.00 0.00 72 1009.4
20260505032334 31 298 9.7 24.1 0.00 0.00 0.00 73 1009.4
20260505031828 31 166 4.8 20.9 0.00 0.00 0.00 72 1009.4
20260505031326 31 7 3.2 32.2 0.00 0.00 0.00 73 1009.5
20260505030816 31 195 14.5 32.2 0.00 0.00 0.00 74 1009.5
20260505030310 31 220 4.8 16.1 0.00 0.00 0.00 73 1009.6
20260505025806 31 260 8.0 16.1 0.00 0.00 0.00 74 1009.5
20260505025245 31 25 0.0 16.1 0.00 0.00 0.00 74 1009.9
20260505024732 30 352 3.2 24.1 0.00 0.00 0.00 75 1009.7
20260505024223 30 27 0.0 24.1 0.00 0.00 0.00 76 1009.8
20260505023719 31 76 1.6 32.2 0.00 0.00 0.00 75 1009.8
20260505023540 30 205 3.2 40.2 0.00 0.00 0.00 75 1009.8
20260505022715 30 208 25.7 48.3 0.00 0.00 0.00 77 1009.7
20260505022200 31 109 11.3 48.3 0.00 0.00 0.00 75 1009.9
20260505021643 31 23 3.2 24.1 0.00 0.00 0.00 74 1009.8
20260505021132 30 12 3.2 24.1 0.00 0.00 0.00 76 1009.8
20260505020627 30 355 12.9 24.1 0.00 0.00 0.00 75 1010.0
20260505020113 30 17 3.2 24.1 0.00 0.00 0.00 77 1010.1
20260505020001 30 335 3.2 24.1 0.00 0.00 0.00 77 1010.1
20260505015059 29 38 4.8 24.1 0.00 0.00 0.00 78 1010.0
20260505015002 30 211 3.2 24.1 0.00 0.00 0.00 78 1010.2
20260505014431 30 16 6.4 24.1 0.00 0.00 0.00 78 1010.1
20260505013534 30 4 8.0 24.1 0.00 0.00 0.00 78 1010.1
20260505013025 30 334 17.7 24.1 0.00 0.00 0.00 77 1010.3
20260505012519 30 11 1.6 20.9 0.00 0.00 0.00 76 1010.2
20260505012018 30 347 8.0 24.1 0.00 0.00 0.00 76 1010.2
20260505011520 31 336 12.9 20.9 0.00 0.00 0.00 75 1009.9
20260505011000 31 39 0.0 27.4 0.00 0.00 0.00 75 1010.2
20260505010436 30 3 14.5 27.4 0.00 0.00 0.00 77 1010.2
20260505005931 30 147 1.6 27.4 0.00 0.00 0.00 77 1010.3
20260505005428 30 32 8.0 27.4 0.00 0.00 0.00 76 1010.4
20260505004924 30 28 0.0 27.4 0.00 0.00 0.00 76 1010.3
20260505004415 30 6 3.2 24.1 0.00 0.00 0.00 76 1010.2
20260505003908 30 5 0.0 20.9 0.00 0.00 0.00 76 1010.4
20260505003402 30 195 14.5 27.4 0.00 0.00 0.00 76 1010.4
20260505002856 30 168 12.9 27.4 0.00 0.00 0.00 76 1010.4
20260505002335 30 224 11.3 24.1 0.00 0.00 0.00 77 1010.3
20260505001839 30 20 3.2 16.1 0.00 0.00 0.00 73 1010.1
20260505001826 30 319 16.1 20.9 0.00 0.00 0.00 74 1010.2
20260505000810 30 46 1.6 16.1 0.00 0.00 0.00 74 1010.2
20260505000713 30 38 0.0 16.1 0.00 0.00 0.00 74 1010.2
20260504235748 30 21 6.4 16.1 0.00 0.00 0.00 74 1010.3
20260504235237 30 347 8.0 12.9 0.00 0.00 0.00 75 1010.1
20260504234728 31 51 0.0 0.0 0.00 0.00 0.00 73 1010.4
20260504234223 30 39 0.0 12.9 0.00 0.00 0.00 74 1010.2
20260504233717 30 34 0.0 20.9 0.00 0.00 0.00 75 1010.2
20260504233213 29 157 6.4 20.9 0.00 0.00 0.00 77 1010.1
20260504232649 29 221 4.8 20.9 0.00 0.00 0.00 78 1010.0
20260504232138 29 207 4.8 12.9 0.00 0.00 0.00 78 1010.1
20260504231629 30 41 0.0 12.9 0.00 0.00 0.00 76 1010.3
20260504231135 29 63 3.2 12.9 0.00 0.00 0.00 77 1010.2
20260504231020 28 48 0.0 16.1 0.00 0.00 0.00 78 1010.0
20260504230111 29 175 1.6 12.9 0.00 0.00 0.00 78 1010.0
20260504225556 29 74 0.0 12.9 0.00 0.00 0.00 77 1010.0
20260504225031 29 32 0.0 8.0 0.00 0.00 0.00 78 1010.2
20260504224523 28 41 0.0 3.2 0.00 0.00 0.00 77 1009.9
20260504224031 29 22 0.0 0.0 0.00 0.00 0.00 76 1010.1
20260504223508 28 19 0.0 0.0 0.00 0.00 0.00 78 1009.9
20260504222946 29 42 0.0 0.0 0.00 0.00 0.00 77 1009.9
20260504222438 28 35 0.0 0.0 0.00 0.00 0.00 78 1009.8
20260504222047 28 32 0.0 0.0 0.00 0.00 0.00 79 1009.9
20260504220913 27 17 0.0 0.0 0.00 0.00 0.00 80 1009.6
20260504220804 27 35 0.0 0.0 0.00 0.00 0.00 81 1009.5
20260504215854 27 25 0.0 0.0 0.00 0.00 0.00 82 1009.5
20260504215347 27 25 0.0 0.0 0.00 0.00 0.00 82 1009.3
20260504214840 27 27 0.0 3.2 0.00 0.00 0.00 82 1009.4
20260504214334 27 28 0.0 3.2 0.00 0.00 0.00 81 1009.5
20260504214256 27 28 0.0 0.0 0.00 0.00 0.00 81 1009.7
20260504213711 27 29 0.0 0.0 0.00 0.00 0.00 82 1009.8
20260504212810 27 20 0.0 0.0 0.00 0.00 0.00 81 1009.5
20260504212304 27 15 0.0 0.0 0.00 0.00 0.00 81 1009.3
20260504211743 27 26 0.0 0.0 0.00 0.00 0.00 81 1009.4
20260504211233 27 20 0.0 0.0 0.00 0.00 0.00 81 1009.3
20260504211216 27 21 0.0 3.2 0.00 0.00 0.00 81 1009.2
20260504210609 27 16 0.0 3.2 0.00 0.00 0.00 81 1009.4
20260504205713 27 26 0.0 3.2 0.00 0.00 0.00 81 1009.3
20260504205159 27 20 0.0 3.2 0.00 0.00 0.00 81 1009.3
20260504205038 27 36 0.0 0.0 0.00 0.00 0.00 81 1009.1
20260504204145 27 28 0.0 3.2 0.00 0.00 0.00 81 1009.0
20260504204023 27 15 0.0 12.9 0.00 0.00 0.00 81 1009.2
20260504203131 27 28 0.0 12.9 0.00 0.00 0.00 81 1009.1
20260504203010 27 33 0.0 12.9 0.00 0.00 0.00 81 1008.9
20260504202113 27 25 1.6 12.9 0.00 0.00 0.00 81 1009.2
20260504202039 27 17 4.8 8.0 0.00 0.00 0.00 80 1009.0
20260504201047 27 44 3.2 12.9 0.00 0.00 0.00 80 1009.0
20260504200542 27 13 0.0 12.9 0.00 0.00 0.00 80 1009.2
20260504200419 27 8 0.0 0.0 0.00 0.00 0.00 81 1008.6
20260504195528 27 68 0.0 0.0 0.00 0.00 0.00 81 1008.9
20260504195349 27 26 0.0 0.0 0.00 0.00 0.00 81 1008.8
20260504194504 27 28 0.0 8.0 0.00 0.00 0.00 81 1008.8
20260504193956 27 182 1.6 8.0 0.00 0.00 0.00 80 1008.7
20260504193456 27 359 6.4 8.0 0.00 0.00 0.00 80 1008.9
20260504192940 27 20 0.0 8.0 0.00 0.00 0.00 80 1008.5
20260504192437 27 18 0.0 3.2 0.00 0.00 0.00 80 1008.9
20260504192312 27 13 1.6 8.0 0.00 0.00 0.00 80 1009.0
20260504191423 27 30 0.0 8.0 0.00 0.00 0.00 80 1009.2
20260504190910 27 29 0.0 0.0 0.00 0.00 0.00 80 1009.0
20260504190731 27 25 0.0 3.2 0.00 0.00 0.00 80 1008.6
20260504185856 27 27 0.0 3.2 0.00 0.00 0.00 80 1008.9
20260504185348 28 17 0.0 0.0 0.00 0.00 0.00 80 1008.9
20260504184842 28 29 0.0 3.2 0.00 0.00 0.00 80 1009.1
20260504184324 28 55 1.6 8.0 0.00 0.00 0.00 80 1009.2
20260504184159 28 48 1.6 8.0 0.00 0.00 0.00 80 1009.0
20260504183303 28 30 0.0 0.0 0.00 0.00 0.00 80 1009.2
20260504182757 28 154 0.0 0.0 0.00 0.00 0.00 80 1009.4
20260504182239 28 33 0.0 0.0 0.00 0.00 0.00 80 1009.4
20260504181730 28 53 0.0 3.2 0.00 0.00 0.00 80 1009.2
20260504181224 28 8 0.0 3.2 0.00 0.00 0.00 80 1009.1
20260504180659 27 27 0.0 12.9 0.00 0.00 0.00 80 1009.3
20260504180154 28 358 0.0 16.1 0.00 0.00 0.00 80 1009.4
20260504175643 28 350 0.0 16.1 0.00 0.00 0.00 80 1009.2
20260504175140 28 60 0.0 20.9 0.00 0.00 0.00 80 1009.2
20260504174627 28 346 4.8 20.9 0.00 0.00 0.00 80 1009.4
20260504174509 28 334 4.8 16.1 0.00 0.00 0.00 79 1009.3
20260504173617 28 24 1.6 16.1 0.00 0.00 0.00 79 1009.4
20260504173602 28 328 4.8 16.1 0.00 0.00 0.00 78 1009.5
20260504172556 28 22 0.0 8.0 0.00 0.00 0.00 77 1009.4
20260504172051 28 4 0.0 16.1 0.00 0.00 0.00 77 1009.6
20260504171544 28 19 3.2 16.1 0.00 0.00 0.00 76 1009.6
20260504171032 28 20 3.2 16.1 0.00 0.00 0.00 76 1009.6
20260504170522 28 358 1.6 8.0 0.00 0.00 0.00 75 1009.9
20260504160341 29 29 0.0 3.2 0.00 0.00 0.00 72 1010.4
20260504150656 29 33 0.0 8.0 0.00 0.00 0.00 70 1011.0
20260504150154 29 32 0.0 12.9 0.00 0.00 0.00 70 1010.8
20260504141034 29 36 0.0 12.9 0.00 0.00 0.00 68 1010.4
20260504140517 29 15 0.0 8.0 0.00 0.00 0.00 68 1010.3
20260504130821 30 38 0.0 12.9 0.00 0.00 0.00 65 1009.8
20260504130315 30 61 6.4 12.9 0.00 0.00 0.00 65 1009.7
20260504130247 30 30 0.0 8.0 0.00 0.00 0.00 65 1009.8
20260504120126 31 66 9.7 27.4 0.00 0.00 0.00 66 1009.6
20260504110446 31 346 3.2 27.4 0.00 0.00 0.00 64 1009.1
20260504100249 32 58 0.0 20.9 0.00 0.00 0.00 62 1008.1